Regional Weather Roundup
Issued by NWS

Home | Current Version | Previous Version | Text Only | Print | Product List | Glossary Off
Versions: 1 2 3 4 5 6 7 8 9 10 11 12 13 14 15 16 17 18 19 20 21 22 23 24 25 26 27 28 29 30 31 32 33 34 35 36 37 38 39 40 41 42 43 44 45 46 47 48 49 50

809
ASUS45 KTFX 091710
RWRMT
MONTANA REGIONAL WEATHER ROUNDUP
NATIONAL WEATHER SERVICE GREAT FALLS MT
1000 AM MST TUE FEB 09 2016

NOTE: "FAIR" INDICATES FEW OR NO CLOUDS BELOW 12000 FEET WITH NO
SIGNIFICANT WEATHER AND/OR OBSTRUCTIONS TO VISIBILITY.

MTZ001>007-043-091800-
WEST OF THE DIVIDE

CITY           SKY/WX    TMP DP  RH WIND       PRES   REMARKS
KALISPELL      MOSUNNY   25  22  88 CALM      30.49F
MISSOULA       FOG       22  20  92 CALM      30.52F VSB 1/4
BUTTE          CLOUDY    19  17  92 CALM      30.47F
MULLAN PASS    SUNNY     42  30  62 SW5       30.43S
ANACONDA         N/A     39  30  70 CALM      30.45F
DEER LODGE       N/A     30  28  93 CALM      30.48F
HAMILTON         N/A     34  28  80 CALM      30.48F
LIBBY            N/A     28  27  93 CALM      30.53F VSB 0
PLAINS           N/A     27  23  84 CALM      30.48  VSB 1
$$

MTZ008-052>055-091800-
SOUTHWEST MONTANA

CITY           SKY/WX    TMP DP  RH WIND       PRES   REMARKS
BOZEMAN        CLOUDY    24  20  84 NW3       30.46S
DILLON         CLOUDY    32  24  72 S12       30.47S WCI  23
ENNIS          SUNNY     36  27  69 S14       30.53S WCI  27
TWIN BRIDGES     N/A     25  17  71 SE7       30.40S WCI  17
$$

MTZ009-010-012-014-046-048-049-054-091800-
EAST SLOPES AND CENTRAL MONTANA

CITY           SKY/WX    TMP DP  RH WIND       PRES   REMARKS
CUT BANK       SUNNY     52  29  41 W13       30.25F
GREAT FALLS    SUNNY     50  29  44 SW18      30.29S
MALMSTROM AFB  SUNNY     50  29  44 SW17      30.29S
HELENA         SUNNY     36  30  79 NW3       30.43S
CHOTEAU          N/A     55  25  30 SW9       30.28F
CONRAD           N/A     50  32  50 S3        30.24S
$$

MTZ011-013-016-021-045-047-050-051-091800-
NORTH CENTRAL MONTANA

CITY           SKY/WX    TMP DP  RH WIND       PRES   REMARKS
HAVRE          SUNNY     43  31  62 SW18      30.24S
LEWISTOWN      SUNNY     42  27  55 W8        30.29S
N BAR RANCH      N/A     54  21  28 NW18      30.28R
CHINOOK          N/A     45  34  65 W6        30.23S
$$

MTZ017>020-022>027-061-062-091800-
NORTHEAST MONTANA

CITY           SKY/WX    TMP DP  RH WIND       PRES   REMARKS
GLASGOW        MOSUNNY   36  28  73 SW3       30.22R
JORDAN           N/A     39  32  76 W6        30.22F
SIDNEY         CLOUDY    37  21  52 NW12      30.22S WCI  30
WOLF POINT     CLOUDY    35  29  78 SW5       30.24R
PLENTYWOOD       N/A     30  23  74 N8        30.19F WCI  23
POPLAR           N/A     34  28  80 SW5       30.23S
SCOBEY           N/A     34  20  57 W5        30.17
$$

MTZ028>42-056>058-091800-
SOUTHCENTRAL AND SOUTHEAST MONTANA

CITY           SKY/WX    TMP DP  RH WIND       PRES   REMARKS
BAKER          CLOUDY    38  27  64 W10       30.23S WCI  31
BILLINGS       MOSUNNY   42  24  49 SW16      30.29S
LIVINGSTON     SUNNY     48  22  35 SW29G39   30.38R
MILES CITY     CLOUDY    35  28  75 SW8       30.24F WCI  29
EKALAKA          N/A     38  27  65 W8        30.18R
FORSYTH          N/A     39  30  70 W7        30.25F
LAUREL           N/A     43  23  45 S10       30.27R
ROUNDUP          N/A     52  28  39 SW9       30.16S
$$

REGIONAL REPORTS...DAKOTAS

CITY           SKY/WX    TMP DP  RH WIND       PRES   REMARKS
WILLISTON      CLOUDY    32  23  69 N8        30.23R WCI  25
MINOT          MOSUNNY   32  13  45 SW12      30.20S WCI  23
DICKINSON      CLOUDY    34  22  61 NW14      30.16S WCI  25
BEACH          CLOUDY    37  25  60 NW15      30.23S WCI  28
CROSBY           N/A     27  27 100 NW5       30.23F
TIOGA          CLOUDY    27  27 100 N6        30.25R WCI  20
WATFORD CITY   PTSUNNY   32  23  69 NW9       30.21S WCI  24
BISMARCK       MOSUNNY   33  10  38 SW9       30.24F WCI  25
GRAND FORKS    FLURRIES  12   4  70 N14       30.31S WCI  -3
FARGO          CLOUDY    13   4  67 N15       30.30S WCI  -3
BUFFALO SD       N/A     42  29  59 NW23      30.13S
RAPID CITY     CLOUDY    44  29  55 NE10      30.20R
$$

REGIONAL REPORTS...WYOMING/IDAHO/WASHINGTON

CITY           SKY/WX    TMP DP  RH WIND       PRES   REMARKS
GILLETTE       CLOUDY    42  30  62 W14       30.27S
SHERIDAN       SUNNY     52  27  37 N8        30.26S
BUFFALO WY       N/A     47  28  47 CALM      30.28F
CODY           SUNNY     41  25  52 CALM      30.35R
YELLOWSTONE LA   N/A     16  16 100 E3        30.57R
IDAHO FALLS    CLOUDY    13  12  96 N3        30.61R FOG
SALMON         CLOUDY    10  10 100 CALM      30.65F
BOISE          CLOUDY    30  25  81 SE9       30.60S WCI  22
SPOKANE        MOSUNNY   34  30  85 NE9       30.42F WCI  27
$$

REGIONAL REPORTS...ALBERTA

CITY           SKY/WX    TMP DP  RH WIND       PRES   REMARKS
EDMONTON       PTSUNNY   39  27  60 SW9       30.08F
CALGARY        PTSUNNY   45  23  42 SW8       30.17F
LETHBRIDGE     MOSUNNY   50  28  43 SW8       30.21F
MEDICINE HAT   PTSUNNY   39  32  75 SW9       30.20S
WATERTON GATE    N/A     46  28  49 SW30G40     N/A
CARDSTON         N/A     48  27  43 SW3         N/A
MILK RIVER       N/A     45  28  53 W10         N/A
$$

REGIONAL REPORTS...SASKATCHEWAN

CITY           SKY/WX    TMP DP  RH WIND       PRES   REMARKS
SWIFT CURRENT  MOSUNNY   37  30  75 SW8       30.13F WCI  31
REGINA         FLURRIES  27  21  80 VRB2      30.21R
SASKATOON      SNOWSHWR  27  23  86 SE12      30.19F VSB 1   WCI  16
$$




USA.gov is the U.S. government's official web portal to all federal, state and local government web resources and services.